Location: Fort Worth, Tx
(32.7431°N, 97.3695°W)
Time: 08:21:05
(UTC-04:00)

OBJECT B - Visible Passes

Search period start: 17 July 2025 00:00
Search period end: 27 July 2025 00:00
Orbit: 1116 x 1181 km, 86.0° (Epoch: 16 July)

Date Brightness Start Highest point End Pass type
(mag) Time Alt. Az. Time Alt. Az. Time Alt. Az.
17 Jul ? 23:43:26 10° WSW 23:47:23 15° WNW 23:51:21 10° NW visible
18 Jul ? 23:10:00 10° SW 23:15:44 25° WNW 23:21:32 10° NNW visible
19 Jul ? 22:37:33 10° SSW 22:44:13 40° W 22:50:58 10° NNW visible
20 Jul ? 22:05:42 10° SSW 22:12:50 64° W 22:20:01 10° N visible
21 Jul ? 23:27:35 10° WSW 23:30:56 14° WNW 23:34:18 10° NW visible
22 Jul ? 22:53:47 10° SW 22:59:15 23° WNW 23:04:46 10° NNW visible
23 Jul ? 22:21:11 10° SSW 22:27:44 37° W 22:34:18 10° NNW visible
24 Jul ? 21:49:13 10° SSW 21:56:18 59° W 22:03:26 10° N visible
25 Jul ? 23:11:57 10° W 23:14:29 12° WNW 23:17:02 10° NW visible
26 Jul ? 22:37:38 10° WSW 22:42:47 21° WNW 22:47:58 10° NNW visible
